Location: Sungai Dangang
(2.7500°N, 113.8333°E)
Time: 19:17:01
(UTC+00:00)

Ariane H10+ - Pass Details

Date: 02 October 2021
Orbit: 237 x 7755 km, 6.8° (Epoch: 21 October)

Event Time Altitude Azimuth Distance (km) Brightness Sun altitude
Exits shadow 19:58:48 51° 246° (WSW) 3,110 4.6 -33.9°
Maximum altitude 20:04:44 80° 170° (S) 3,512 5.1 -32.4°
Drops below altitude 10° 20:51:04 10° 85° (E) 11,383 9.1 -20.8°
Sets 21:03:45 0° 84° (E) 12,640 9.9 -17.7°
